COSMOS 2433 (720) 1 32275U 07052A 25293.12477843 -.00000041 00000+0 00000+0 0 9994 2 32275 65.7104 324.0075 0005907 239.4221 120.5839 2.13104210139947 COSMOS 2432 (719) 1 32276U 07052B 25292.25969652 -.00000039 00000+0 00000+0 0 9999 2 32276 65.7265 324.1598 0010201 306.6704 54.3132 2.13103226139950 COSMOS 2434 (721) 1 32393U 07065A 25295.24138963 .00000025 00000+0 00000+0 0 9992 2 32393 64.3148 199.9408 0002803 63.3067 11.3440 2.13101333138705 COSMOS 2436 (723) 1 32395U 07065C 25295.01473588 .00000023 00000+0 00000+0 0 9992 2 32395 64.3235 200.0182 0017325 3.3815 30.6925 2.13100050138658 COSMOS 2456 (730) 1 36111U 09070A 25295.12099160 -.00000003 00000+0 00000+0 0 9991 2 36111 64.8713 79.1020 0001461 322.1680 176.8845 2.13103677123359 COSMOS 2457 (733) 1 36112U 09070B 25293.06203281 .00000002 00000+0 00000+0 0 9992 2 36112 64.8558 79.0210 0005959 142.2160 346.9117 2.13101052123310 COSMOS 2460 (732) 1 36402U 10007C 25295.27815464 -.00000043 00000+0 00000+0 0 9999 2 36402 65.5567 322.5122 0002926 245.4090 142.5190 2.13106327121664 COSMOS 2476 (744) 1 37867U 11064A 25295.29008256 .00000001 00000+0 00000+0 0 9997 2 37867 65.1346 80.9113 0022756 230.7414 306.7998 2.13101510108693 COSMOS 2477 (745) 1 37868U 11064B 25294.34891060 .00000001 00000+0 00000+0 0 9996 2 37868 65.1402 81.0202 0019810 230.9024 125.2728 2.13102942108666 COSMOS 2475 (743) 1 37869U 11064C 25293.28241736 .00000006 00000+0 00000+0 0 9993 2 37869 65.1462 81.0757 0024513 246.6564 327.5416 2.13101662108655 COSMOS 2485 (747) 1 39155U 13019A 25294.52659502 .00000002 00000+0 00000+0 0 9993 2 39155 65.2874 81.6222 0023252 226.6509 133.1458 2.13104461 97195 COSMOS 2492 (754) 1 39620U 14012A 25294.01585632 -.00000042 00000+0 00000+0 0 9995 2 39620 65.4359 322.0598 0013383 307.3671 52.5717 2.13103298 90148 COSMOS 2500 (755) 1 40001U 14032A 25294.18875468 -.00000042 00000+0 00000+0 0 9999 2 40001 65.3716 321.8204 0009305 213.4167 146.5842 2.13106087 88369 COSMOS 2501 (702K) 1 40315U 14075A 25294.44771281 .00000020 00000+0 00000+0 0 9996 2 40315 63.6140 198.6356 0020662 207.5297 152.4159 2.13101402 84767 COSMOS 2514 (751) 1 41330U 16008A 25294.90095470 -.00000043 00000+0 00000+0 0 9998 2 41330 65.1616 321.1805 0013415 216.1900 143.7761 2.13102722 75541 COSMOS 2522 (752) 1 42939U 17055A 25291.92381796 -.00000014 00000+0 00000+0 0 9993 2 42939 64.0763 200.0948 0007984 234.2913 125.6716 2.13101969 62839 COSMOS 2527 (756) 1 43508U 18053A 25292.35369249 .00000016 00000+0 00000+0 0 9993 2 43508 65.4444 81.9486 0007748 214.6932 145.2543 2.13102199 57147 COSMOS 2529 (757) 1 43687U 18086A 25292.92051894 -.00000001 00000+0 00000+0 0 9999 2 43687 64.2923 200.7060 0009005 256.7403 103.2008 2.13102011 54163 COSMOS 2534 (758) 1 44299U 19030A 25280.20502529 .00000026 00000+0 00000+0 0 9999 2 44299 64.3664 201.1333 0011282 279.9657 179.4735 2.13101899 49532 COSMOS 2544 (759) 1 44850U 19088A 25295.11374836 .00000003 00000+0 00000+0 0 9994 2 44850 65.4328 81.6842 0012285 245.6665 114.1944 2.13102007 45641 COSMOS 2545 (760) 1 45358U 20018A 25294.84054394 -.00000044 00000+0 00000+0 0 9992 2 45358 64.4982 320.7911 0012366 242.8094 117.1204 2.13102595 43584 COSMOS 2547 (705K) 1 46805U 20075A 25280.01151130 .00000025 00000+0 00000+0 0 9991 2 46805 64.5970 200.9234 0007647 236.6415 123.3077 2.13099754 38517 COSMOS 2557 (706K) 1 52984U 22075A 25294.72451324 -.00000046 00000+0 00000+0 0 9993 2 52984 64.4375 322.8814 0013613 272.8083 87.0947 2.13102190 25631 COSMOS 2559 (707K) 1 54031U 22130A 25290.78947542 -.00000039 00000+0 00000+0 0 9996 2 54031 64.4118 323.1110 0012940 191.1981 168.8362 2.13101599 23523 COSMOS 2564 (761) 1 54377U 22161A 25293.91862978 .00000012 00000+0 00000+0 0 9990 2 54377 64.7377 200.6527 0009673 214.8505 145.1340 2.13102106 22530 COSMOS 2569 (703K) 1 57517U 23114A 25292.05538065 .00000015 00000+0 00000+0 0 9992 2 57517 65.1646 80.7607 0008775 289.1959 70.7070 2.13103818 17122 COSMOS 2584 (704K) 1 63130U 25042A 25292.41106138 .00000012 00000+0 00000+0 0 9991 2 63130 64.9469 80.9959 0007059 204.4000 155.5636 2.13103309 4911 COSMOS 2596 (708K) 1 65590U 25206B 25294.61749431 -.00000045 00000+0 00000+0 0 9995 2 65590 64.7714 323.2865 0013495 302.2586 69.4402 2.13101162 825